Portada
METAR-TAF:

METAR-TAF

Aeroports :

Orlhac, França

latitud: 44-53N, longitud: 002-25E, altitud: 639 m

Observació

L'informe es va fer fa 40 minuts, a les 23:30 UTC
Vent 6 kt del Oest/Nord-Oest, variant entre Oest/Sud-Oest i Nord/Nord-Oest
Temperatura 11°C
Humitat 94%
Pressió 1006 hPa
Visibilitat 10 km o més

METAR: LFLW 042330Z AUTO 29006KT 250V340 9999 ////// 11/10 Q1006

Hora: 02:10 (00:10 UTC)


TAF: manca

Observacions i pronòstics meteorològics de més de 4000 aeroports (METAR i TAF).

Les estacions disponibles són els punts grocs i vermells al mapa.

Posi el ratolí al punt desitjat per veure el nom de l'estació.

Feu clic per veure les observacions i els pronòstics meteorològics.

Per canviar el mapa: feu clic els botons verds amb una creu de color negre per apropar; al botó verd amb un guió per allunyar la imatge; o en les fletxes verdes per a mapes adjacents.


METAR-TAF: